Location: Unspecified
(34.4500°N, 0.0000°E)
Time: 15:18:26
(UTC+00:00)

Envisat - Pass Details

Date: 07 March 2021
Orbit: 764 x 766 km, 98.1° (Epoch: 17 April)

Event Time Altitude Azimuth Distance (km) Brightness Sun altitude
Rises 05:52:15 0° 8° (N) 3,237 6.3 -6.8°
Reaches altitude 10° 05:54:35 10° 5° (N) 2,307 5.5 -6.3°
Maximum altitude 05:59:35 62° 285° (WNW) 856 3.0 -5.3°
Drops below altitude 10° 06:04:34 10° 206° (SSW) 2,291 5.3 -4.3°
Sets 06:06:53 0° 202° (SSW) 3,213 6.0 -3.8°
